FW0584 Weather Reports


time (UTC)temp
C
wind
direction
speed
KPH
gust
KPH
rain 1hr
cm
rain 24hr
cm
rain mn
cm
humidity
%
barometer
mb
20190425200904 13 214 9.7 19.3 0.00 0.00 0.00 87 1011.5
20190425200404 13 180 11.3 19.3 0.00 0.00 0.00 86 1011.4
20190425193904 13 170 9.7 14.5 0.00 0.00 0.00 84 1011.0
20190425193404 14 186 4.8 12.9 0.00 0.00 0.00 84 1011.2
20190425190905 14 212 8.0 12.9 0.00 0.00 0.00 84 1010.9
20190425190404 14 261 8.0 24.1 0.00 0.00 0.00 84 1010.8
20190425183905 14 208 16.1 27.4 0.00 0.00 0.00 82 1010.3
20190425183405 14 199 17.7 32.2 0.00 0.00 0.00 81 1010.3
20190425180904 15 190 14.5 27.4 0.00 0.00 0.00 76 1009.9
20190425180404 16 219 16.1 33.8 0.00 0.00 0.00 75 1010.0
20190425173905 16 206 14.5 27.4 0.00 0.00 0.00 73 1009.4
20190425173405 16 213 14.5 32.2 0.00 0.00 0.00 74 1009.4
20190425170904 16 192 11.3 22.5 0.00 0.00 0.00 77 1009.5
20190425170405 16 197 11.3 22.5 0.00 0.00 0.00 77 1009.6
20190425163905 16 203 14.5 25.7 0.00 0.00 0.00 77 1009.3
20190425163405 16 206 19.3 33.8 0.00 0.00 0.00 76 1009.5
20190425160905 16 204 20.9 32.2 0.00 0.00 0.00 75 1009.4
20190425160406 16 198 20.9 37.0 0.00 0.00 0.00 74 1009.4
20190425153905 16 213 16.1 35.4 0.00 0.00 0.00 74 1009.3
20190425153405 16 197 19.3 35.4 0.00 0.00 0.00 72 1009.1
20190425150905 17 186 20.9 29.0 0.00 0.00 0.00 70 1008.8
20190425150406 17 199 19.3 35.4 0.00 0.00 0.00 68 1008.8
20190425143905 18 181 22.5 35.4 0.00 0.00 0.00 64 1009.1
20190425143404 18 198 19.3 29.0 0.00 0.00 0.00 63 1009.2
20190425140905 18 193 16.1 27.4 0.00 0.00 0.00 59 1008.8
20190425140406 19 191 14.5 32.2 0.00 0.00 0.00 59 1008.7
20190425133904 20 258 17.7 29.0 0.00 0.00 0.00 54 1009.1
20190425133405 20 258 14.5 32.2 0.00 0.00 0.00 53 1009.1
20190425130904 20 258 14.5 24.1 0.00 0.00 0.00 53 1009.2
20190425130405 20 227 14.5 33.8 0.00 0.00 0.00 53 1009.5
20190425123904 20 224 16.1 37.0 0.00 0.00 0.00 57 1009.7
20190425123404 21 246 12.9 40.2 0.00 0.00 0.00 57 1009.6
20190425120905 21 251 20.9 33.8 0.00 0.00 0.00 54 1009.5
20190425120404 21 263 14.5 32.2 0.00 0.00 0.00 56 1009.5
20190425113904 20 216 19.3 33.8 0.00 0.00 0.00 56 1009.8
20190425113405 20 226 16.1 33.8 0.00 0.00 0.00 58 1009.9
20190425110904 19 251 19.3 29.0 0.00 0.00 0.00 66 1009.9
20190425110404 19 232 9.7 37.0 0.00 0.00 0.00 71 1009.8
20190425103905 18 200 25.7 37.0 0.00 0.00 0.00 71 1009.9
20190425103404 18 210 22.5 45.1 0.00 0.00 0.00 72 1009.9
20190425100904 18 193 32.2 41.8 0.00 0.00 0.00 74 1009.7
20190425100405 18 207 22.5 41.8 0.00 0.00 0.00 76 1009.8
20190425093905 17 193 16.1 32.2 0.00 0.00 0.00 78 1009.9
20190425093406 17 190 22.5 40.2 0.00 0.00 0.00 78 1009.9
20190425090905 17 201 27.4 40.2 0.00 0.00 0.00 79 1009.7
20190425090406 16 198 20.9 41.8 0.00 0.00 0.00 80 1009.8
20190425083905 16 194 20.9 32.2 0.00 0.00 0.00 82 1009.8
20190425083405 15 199 24.1 40.2 0.00 0.00 0.00 82 1009.7
20190425080904 15 193 22.5 37.0 0.00 0.00 0.00 85 1009.8
20190425080404 15 202 20.9 37.0 0.00 0.00 0.00 85 1009.9
20190425073904 14 209 24.1 37.0 0.00 0.00 0.00 86 1009.8
20190425073404 14 205 20.9 38.6 0.00 0.00 0.00 86 1009.7
20190425070904 14 196 16.1 24.1 0.00 0.00 0.00 86 1009.4
20190425070404 14 204 14.5 37.0 0.00 0.00 0.00 86 1009.4
20190425063904 14 200 17.7 29.0 0.00 0.00 0.00 86 1009.4
20190425063405 14 191 19.3 35.4 0.00 0.00 0.00 86 1009.3
20190425060904 13 211 19.3 33.8 0.00 0.00 0.00 87 1009.3
20190425060404 13 175 19.3 41.8 0.00 0.00 0.00 87 1009.1
20190425053905 13 186 14.5 32.2 0.00 0.00 0.00 87 1009.1
20190425053405 13 186 14.5 29.0 0.00 0.00 0.00 87 1009.0
20190425050904 13 180 16.1 33.8 0.00 0.00 0.00 86 1008.8
20190425050404 13 183 14.5 35.4 0.00 0.00 0.00 86 1008.8
20190425043904 13 205 24.1 37.0 0.00 0.00 0.00 86 1008.8
20190425043404 13 192 19.3 48.3 0.00 0.00 0.00 85 1008.8
20190425040905 13 182 27.4 41.8 0.00 0.00 0.00 85 1008.5
20190425040404 13 178 27.4 45.1 0.00 0.00 0.00 86 1008.7
20190425033905 13 201 25.7 45.1 0.00 0.00 0.00 86 1008.9
20190425033404 13 203 27.4 51.5 0.00 0.00 0.00 86 1008.8
20190425030904 13 181 20.9 32.2 0.00 0.00 0.00 87 1008.9
20190425030405 13 188 16.1 33.8 0.00 0.00 0.00 87 1009.1
20190425023904 13 196 25.7 41.8 0.00 0.00 0.00 87 1009.6
20190425023404 13 193 19.3 41.8 0.00 0.00 0.00 87 1009.5
20190425020904 13 199 20.9 32.2 0.00 0.00 0.00 87 1009.7
20190425020405 13 197 20.9 51.5 0.00 0.00 0.00 87 1009.7
20190425013904 13 197 16.1 32.2 0.00 0.00 0.00 86 1009.9
20190425013404 13 208 14.5 41.8 0.00 0.00 0.00 86 1009.9
20190425010904 13 202 20.9 38.6 0.00 0.00 0.00 86 1010.1
20190425010404 13 190 19.3 45.1 0.00 0.00 0.00 86 1010.1
20190425003904 13 188 27.4 38.6 0.00 0.00 0.00 86 1010.3
20190425003405 13 205 24.1 41.8 0.00 0.00 0.00 86 1010.3
20190425000905 13 192 14.5 27.4 0.00 0.00 0.00 86 1010.6
20190425000404 13 199 11.3 35.4 0.00 0.00 0.00 86 1010.6
20190424233904 13 198 16.1 27.4 0.00 0.00 0.00 86 1010.9
20190424233405 13 203 20.9 33.8 0.00 0.00 0.00 86 1010.8
20190424230904 13 197 11.3 19.3 0.00 0.00 0.00 86 1011.1
20190424230405 13 191 11.3 22.5 0.00 0.00 0.00 86 1011.1
20190424223904 12 205 12.9 25.7 0.00 0.00 0.00 85 1011.0
20190424223405 12 182 11.3 22.5 0.00 0.00 0.00 84 1011.0
20190424220904 12 193 16.1 24.1 0.00 0.00 0.00 83 1011.0
20190424220405 12 198 16.1 27.4 0.00 0.00 0.00 83 1011.1
20190424213905 12 207 16.1 25.7 0.00 0.00 0.03 83 1011.1
20190424213404 12 196 14.5 22.5 0.00 0.00 0.03 83 1011.1
20190424210905 12 195 14.5 19.3 0.00 0.00 0.03 82 1011.1
20190424210405 12 204 12.9 24.1 0.00 0.00 0.03 82 1011.0
20190424203904 12 200 16.1 32.2 0.00 0.00 0.03 81 1010.8
20190424203405 12 209 17.7 33.8 0.00 0.00 0.03 81 1010.8